Regional Weather Roundup
Issued by NWS Charleston, WV

Home | Current Version | Previous Version | Text Only | Print | Product List | Glossary Off
Versions: 1 2 3 4 5 6 7 8 9 10 11 12 13 14 15 16 17 18 19 20 21 22 23 24 25 26 27

000
ASUS41 KRLX 250710
RWRRLX
West Virginia Regional Weather Roundup
National Weather Service Charleston WV
300 AM EDT THU MAY 25 2017

Note: "fair" indicates few or no clouds below 12,000 feet with no
significant weather and/or obstructions to visibility.

WVZ003-250800-
Northern Panhandle of West Virginia

CITY           SKY/WX    TMP DP  RH WIND       PRES   REMARKS
WHEELING       LGT RAIN  58  55  90 SE14      29.48F
$$

WVZ009-250800-
Northwest West Virginia

CITY           SKY/WX    TMP DP  RH WIND       PRES   REMARKS
PARKERSBURG    CLOUDY    61  58  90 SE3       29.48S
$$

WVZ006-250800-
Western West Virginia

CITY           SKY/WX    TMP DP  RH WIND       PRES   REMARKS
HUNTINGTON     CLOUDY    59  53  80 S10       29.46S
$$

WVZ015-250800-
West Central West Virginia

CITY           SKY/WX    TMP DP  RH WIND       PRES   REMARKS
CHARLESTON     CLOUDY    60  56  86 W5        29.47S
$$

WVZ022-031-250800-
North Central West Virginia

CITY           SKY/WX    TMP DP  RH WIND       PRES   REMARKS
CLARKSBURG     LGT RAIN  58  55  90 E6        29.48F
MORGANTOWN     RAIN      57  55  93 E6        29.51F FOG
$$

WVZ025-035-042-045-250800-
Southern West Virginia

CITY           SKY/WX    TMP DP  RH WIND       PRES   REMARKS
BECKLEY        LGT RAIN  56  54  93 S3        29.52S
LOGAN            N/A     57  54  88 CALM      29.49F
BLUEFIELD      MOCLDY    53  50  89 CALM      29.54F
LEWISBURG      RAIN      55  54  99 CALM      29.53F
$$

WVZ047-250800-
Northern Mountains of West Virginia

CITY           SKY/WX    TMP DP  RH WIND       PRES   REMARKS
ELKINS         RAIN      56  54  93 CALM      29.52F FOG
$$

WVZ052-250800-
Eastern Panhandle of West Virginia

CITY           SKY/WX    TMP DP  RH WIND       PRES   REMARKS
MARTINSBURG    HVY RAIN  56  54  93 NE7       29.56F FOG
PETERSBURG     RAIN      58  58  97 NW3       29.52F
$$




USA.gov is the U.S. government's official web portal to all federal, state and local government web resources and services.